Location: Beetenbrück
(52.8113°N, 9.5946°E)
Time: 21:13:42
(UTC+00:00)

ERS-1 Rocket - Pass Details

Date: 14 April 2026
Orbit: 747 x 750 km, 98.2° (Epoch: 12 May)

Event Time Altitude Azimuth Distance (km) Brightness Sun altitude
Exits shadow 19:31:21 - 168° (SSE) 2,848 5.5 -10.7°
Reaches altitude 10° 19:32:48 10° 169° (S) 2,265 5.0 -10.9°
Maximum altitude 19:37:48 78° 256° (WSW) 773 3.1 -11.5°
Drops below altitude 10° 19:42:50 10° 343° (NNW) 2,284 6.3 -12.2°
Sets 19:45:09 0° 345° (NNW) 3,213 7.1 -12.4°
